AirNav   Air Wisconsin pilot careers
 
 558 users online  

X04 Orlando Apopka Airport
Apopka, Florida, USA

GOING TO APOPKA?


FAA INFORMATION EFFECTIVE 18 JULY 2019

Location

FAA Identifier: X04
Lat/Long: 28-42-26.9079N / 081-34-55.0722W
28-42.448465N / 081-34.917870W
28.7074744 / -81.5819645
(estimated)
Elevation: 150 ft. / 46 m (estimated)
Variation: 06W (2015)
From city: 4 miles NW of APOPKA, FL
Time zone: UTC -4 (UTC -5 during Standard Time)
Zip code: 32798

Airport Operations

Airport use: Open to the public
Control tower: no
ARTCC: JACKSONVILLE CENTER
FSS: SAINT PETERSBURG FLIGHT SERVICE STATION
NOTAMs facility: PIE (NOTAM-D service available)
Attendance: JAN-DEC 0800-1800
Wind indicator: lighted
Segmented circle: yes
Lights: PAPI 15/33 ON CONT DURG DALGT. AFTER SS, ACTVT PAPI 15/33 - CTAF.
Beacon: white-green (lighted land airport)
Operates sunset to sunrise.

Airport Communications

CTAF/UNICOM: 123.05
ORLANDO APPROACH: 135.3
ORLANDO DEPARTURE: 135.3
COSTR STAR: 128.375
GOOFY STAR: 124.8 128.375
WX ASOS at LEE (14 nm NW): 134.325 (352-787-1565)
WX ASOS at ORL (16 nm SE): PHONE 407-658-6753
WX ASOS at SFB (19 nm E): PHONE 407-321-9384

Nearby radio navigation aids

VOR radial/distance  VOR name  Freq  Var
ORLr307/16.3ORLANDO VORTAC112.2000E

Airport Services

Fuel available: 100LL JET-A
Parking: hangars and tiedowns
Airframe service: MAJOR
Powerplant service: MAJOR
Bottled oxygen: LOW
Bulk oxygen: LOW

Runway Information

Runway 15/33

Dimensions: 3987 x 60 ft. / 1215 x 18 m
Surface: asphalt, in good condition
Gradient: NW
RUNWAY 15  RUNWAY 33
Latitude: 28-42.728160N28-42.168770N
Longitude: 081-35.114220W081-34.721520W
Elevation: 142.2 ft.125.2 ft.
Traffic pattern: rightleft
Displaced threshold: 943 ft.no
Declared distances: TORA:3987 TODA:3987 ASDA:3987 LDA:3044TODA:3987 ASDA:3987 LDA:3987
Markings: basic, in good conditionbasic, in good condition
Visual slope indicator: 2-light PAPI on left (3.50 degrees glide path)2-light PAPI on left (3.00 degrees glide path)
Touchdown point: yes, no lightsyes, no lights
Obstructions: 10 ft. berm, 200 ft. from runway, 125 ft. left of centerline, 1:1 slope to clear
RWY 15 HAS 10 FT BERM 200 FT FM RWY END 125 FT LEFT.
26 ft. tree, 1208 ft. from runway, 41 ft. right of centerline, 40:1 slope to clear

Airport Ownership and Management from official FAA records

Ownership: Privately-owned
Owner: ORLANDO APOPKA ARPT CONDO ASSOC.
882 JACKSON AVE., REGISTERED AGENT
WINTER PARK, FL 32789
Phone 407-647-2622
Manager: BOB JACKSON
1321 APOPKA AIRPORT RD HANGAR 37
APOPKA, FL 32712
Phone 407-308-5904

Airport Operational Statistics

Aircraft based on the field: 127
Single engine airplanes: 90
Multi engine airplanes: 25
Jet airplanes: 2
Helicopters: 2
Ultralights: 8
    
Aircraft operations: avg 60/day *
75% local general aviation
25% transient general aviation
* for 12-month period ending 17 August 2018

Additional Remarks

STEEP DROPOFF 63' FROM SE END & APRXLY 55' OFF WEST EDGE.
RY 15/33 RR PENETRATES 7:1 TRANS SFC EAST SIDE.
CTC UNICOM OR 407-308-5904 FOR SAFETY BRIEFING.
RY 15/33 CLSD TO TOUCH AND GO LNDGS BY TRANSIENT HELICOPTERS.
FOR CD CTC JACKSONVILLE ARTCC AT 904-845-1592.

Instrument Procedures

NOTE: All procedures below are presented as PDF files. If you need a reader for these files, you should download the free Adobe Reader.

NOT FOR NAVIGATION. Please procure official charts for flight.
FAA instrument procedures published for use from 18 July 2019 at 0901Z to 16 August 2019 at 0900Z.

 
STARs - Standard Terminal Arrivals
COSTR THREE (RNAV)   2 pages: [1] [2] (285KB)
GOOFY SEVEN   download (246KB)
 
IAPs - Instrument Approach Procedures
RNAV (GPS)-A   download
RNAV (GPS)-B   download
NOTE: Special Take-Off Minimums/Departure Procedures apply   download (162KB)

Other nearby airports with instrument procedures:

X23 - Umatilla Municipal Airport (14 nm N)
KLEE - Leesburg International Airport (14 nm NW)
KORL - Executive Airport (16 nm SE)
KSFB - Orlando Sanford International Airport (19 nm E)
KMCO - Orlando International Airport (22 nm SE)
 
Loc | Ops | Rwys | IFR | FBO | Links
Com | Nav | Svcs | Stats | Notes


 
Area around X04 (Orlando Apopka Airport)
 
Road maps at: MapQuest Bing Google
 
Aerial photo
WARNING: Photo may not be current or correct
Aerial photo of X04 (Orlando Apopka Airport)
Photo by Jim Hobart of MacBethPhoto.com
Photo taken 14-Jul-2011
looking northwest.

Do you have a better or more recent aerial photo of Orlando Apopka Airport that you would like to share? If so, please send us your photo.

 
Sectional chart

 
Airport distance calculator
Flying to Orlando Apopka Airport? Find the distance to fly.

From to X04

Sunrise and sunset
Times for 22-Jul-2019
 Local
(UTC-4)
 Zulu
(UTC)
Morning civil twilight06:1710:17
Sunrise06:4310:43
Sunset20:2200:22
Evening civil twilight20:4900:49

Current date and time
Zulu (UTC)  22-Jul-2019 10:52:29
Local (UTC-4)  22-Jul-2019 06:52:29
 
METAR
KLEE 
14nm NW 
220953Z AUTO 04003KT 10SM CLR 23/22 A3004 RMK AO2 SLP169 T02330217
KORL 
16nm SE 
220953Z AUTO 00000KT 10SM CLR 23/22 A3002 RMK AO2 SLP169 T02330217
KSFB 
20nm E 
220953Z AUTO 00000KT 10SM CLR 23/21 A3002 RMK AO2 SLP164 T02330211
KMCO 
22nm SE 
220953Z 00000KT 10SM FEW035 FEW250 23/21 A3002 RMK AO2 SLP164 T02280211
KISM 
27nm S 
220956Z AUTO 05003KT 10SM CLR 24/22 A3003 RMK AO2 SLP171 T02390222 PNO $
KDED 
27nm NE 
221035Z AUTO 00000KT 10SM CLR 21/20 A3003 RMK AO2
TAF
KLEE 
14nm NW 
220544Z 2206/2306 00000KT P6SM BKN250 FM221400 16005KT P6SM SCT030 FM222000 19006KT P6SM VCTS SCT040CB BKN080 TEMPO 2221/2223 3SM TSRA BKN030CB FM230200 18004KT P6SM FEW040 BKN100 OVC250
KSFB 
20nm E 
220544Z 2206/2306 00000KT P6SM BKN250 FM221400 15006KT P6SM SCT030 FM221900 12008KT P6SM VCTS SCT040CB BKN080 TEMPO 2220/2222 3SM TSRA BKN030CB FM230100 18003KT P6SM FEW040 BKN100 OVC250
NOTAMs
Click for the latest NOTAMs
NOTAMs are issued by the DoD/FAA and will open in a separate window not controlled by AirNav.

 

 
 

FBO, Fuel Providers, and Aircraft Ground Support

  
 Business Name 
 
 Contact 
 
 Services / Description 
 
Fuel Prices
 
Comments
  
City of Apopka 352-455-7405
[web site]
[email]
Aviation fuel

More info about City of Apopka
independent
100LL Jet A
SS $3.70 $3.95 
 Updated 10-Jul-2019
 
   3 read write
SS=Self service
Update Fuel Prices
 

Aviation Businesses, Services, and Facilities

  
 Business Name 
 
 Contact 
 
 Services / Description 
 
Distance
 
Comments
  
Chandelle Properties Team - Arrowsmith Realty 407-712-4071
[web site]
[email]
Hangar leasing / sales

More info about Chandelle Properties Team - Arrowsmith Realty
on airport  
   write
 

Would you like to see your business listed on this page?

 If your business provides an interesting product or service to pilots, flight crews, aircraft, or users of the Orlando Apopka Airport, you should consider listing it here.  To start the listing process, click on the button below
 
Add a business
 

Other Pages about Orlando Apopka Airport

www.orlx04.org
 
Update a link
 
Copyright © AirNav, LLC. All rights reserved. Privacy Policy  Contact